STARLINK-32280 (60736 NORAD) Tracking and Keplerian Element Data

This shows tracking and keplerian element data for the satellite.

Feedback or suggestion? Click here.




ElementValue
Catalog60736
NameSTARLINK-32280
Epoch Orbit828
Epoch Day286.79701143
Epoch Year2024
RAAN130.8288
Inclination53.1622
Eccentricity0.0001357
Argument of Perigee103.4812
Mean Anonmoly256.6341
Mean Motion15.30188765
Decay Rate8.7E-06
L11 60736U 24152S 24286.79701143 .00000870 00000+0 41519-4 0 9998
L22 60736 53.1622 130.8288 0001357 103.4812 256.6341 15.30188765 8287



Live tracking and technical data element details for STARLINK-32280 (NORAD 60736). STARLINK-32280 can be tracked NOW for your location showing map with azimuth and elevation plus other details from your city location.







IsCatalogInMostPopularTable: catalog: 60736, numindb: 8
Update: records affected: 1



GetName: 60736 STARLINK-32280

Hit Count: updated at: Fri, 06 Dec 2024 11:57:52 GMT